EW3230 Weather Reports


Display with metric or nautical units.
time (UTC)temp
F
wind
direction
speed
MPH
gust
MPH
rain 1hr
in
rain 24hr
in
rain mn
in
humidity
%
barometer
mb
20211022184841 71 205 2.0 4.0 0.00 0.00 0.00 65 1010.1
20211022183839 72 197 2.0 4.0 0.00 0.00 0.00 68 1010.0
20211022182833 72 205 1.0 5.0 0.00 0.00 0.00 71 1010.1
20211022181833 72 210 1.0 4.0 0.00 0.00 0.00 70 1010.0
20211022180833 71 194 1.0 4.0 0.00 0.00 0.00 72 1010.1
20211022175834 71 219 0.0 3.0 0.00 0.00 0.00 72 1010.2
20211022174833 70 184 0.0 3.0 0.00 0.00 0.00 72 1010.1
20211022173834 70 250 0.0 4.0 0.00 0.00 0.00 72 1010.1
20211022172833 70 229 1.0 2.0 0.00 0.00 0.00 69 1010.2
20211022171833 71 236 1.0 5.0 0.00 0.00 0.00 69 1010.1
20211022170833 71 236 1.0 6.0 0.00 0.00 0.00 69 1010.1
20211022165829 72 265 2.0 8.0 0.00 0.00 0.00 67 1010.1
20211022164828 72 271 1.0 5.0 0.00 0.00 0.00 67 1010.2
20211022163828 72 242 1.0 4.0 0.00 0.00 0.00 68 1010.3
20211022162827 71 211 1.0 5.0 0.00 0.00 0.00 70 1010.2
20211022161831 71 212 2.0 5.0 0.00 0.00 0.00 68 1010.2
20211022160828 71 209 2.0 4.0 0.00 0.00 0.00 68 1010.2
20211022155829 70 225 1.0 5.0 0.00 0.00 0.00 71 1010.1
20211022154828 70 203 1.0 3.0 0.00 0.00 0.00 72 1010.1
20211022153828 70 242 1.0 3.0 0.00 0.00 0.00 73 1010.0
20211022152826 69 260 1.0 4.0 0.00 0.00 0.00 75 1010.1
20211022151825 69 201 1.0 4.0 0.00 0.00 0.00 76 1010.1
20211022150826 69 224 1.0 4.0 0.00 0.00 0.00 77 1010.1
20211022145826 69 211 0.0 3.0 0.00 0.00 0.00 80 1010.1
20211022144826 68 208 1.0 5.0 0.00 0.00 0.00 81 1010.4
20211022143826 68 340 1.0 6.0 0.00 0.00 0.00 80 1010.4
20211022142826 68 231 0.0 3.0 0.00 0.00 0.00 83 1010.3
20211022141826 68 208 1.0 4.0 0.00 0.00 0.00 84 1010.2
20211022140825 68 265 1.0 4.0 0.00 0.00 0.00 84 1010.2
20211022135824 68 226 0.0 3.0 0.00 0.00 0.00 86 1010.3
20211022134824 67 214 1.0 4.0 0.00 0.00 0.00 86 1010.1
20211022133824 67 208 1.0 3.0 0.00 0.00 0.00 87 1010.0
20211022132825 67 219 1.0 4.0 0.00 0.00 0.00 88 1009.9
20211022131826 67 213 1.0 3.0 0.00 0.00 0.00 89 1009.9
20211022130824 67 218 1.0 3.0 0.00 0.00 0.00 89 1009.9
20211022125824 67 226 1.0 3.0 0.00 0.00 0.00 91 1009.7
20211022124823 66 209 1.0 3.0 0.00 0.00 0.00 91 1009.6
20211022123818 66 224 0.0 2.0 0.00 0.00 0.00 92 1009.5
20211022122817 66 221 0.0 2.0 0.00 0.00 0.00 92 1009.4
20211022121818 66 205 1.0 4.0 0.00 0.00 0.00 92 1009.3
20211022120817 66 218 1.0 4.0 0.00 0.00 0.00 92 1009.2
20211022115818 66 224 1.0 4.0 0.00 0.00 0.00 92 1009.1
20211022114818 65 209 1.0 2.0 0.00 0.00 0.00 93 1008.8
20211022113817 65 210 0.0 2.0 0.00 0.00 0.00 93 1008.8
20211022112818 65 214 1.0 2.0 0.00 0.00 0.00 93 1008.9
20211022111817 65 218 0.0 2.0 0.00 0.00 0.00 93 1008.9
20211022110812 65 207 0.0 2.0 0.00 0.00 0.00 93 1008.8
20211022105812 65 218 0.0 2.0 0.00 0.00 0.00 93 1008.7
20211022104811 65 218 0.0 3.0 0.00 0.00 0.00 93 1008.5
20211022103812 65 219 1.0 2.0 0.00 0.00 0.00 92 1008.5
20211022102811 65 245 0.0 2.0 0.00 0.00 0.00 92 1008.8
20211022101812 65 215 0.0 3.0 0.00 0.00 0.00 92 1008.9
20211022100812 65 219 0.0 2.0 0.00 0.00 0.00 93 1008.9
20211022095812 65 203 0.0 2.0 0.00 0.00 0.00 93 1008.8
20211022094811 65 201 0.0 1.0 0.00 0.00 0.00 93 1009.0
20211022093806 65 212 0.0 3.0 0.00 0.00 0.00 93 1008.9
20211022092806 65 210 0.0 2.0 0.00 0.00 0.00 93 1009.1
20211022091806 65 215 0.0 2.0 0.00 0.00 0.00 93 1009.1
20211022090805 64 205 0.0 2.0 0.00 0.00 0.00 93 1009.1
20211022085805 64 215 0.0 1.0 0.00 0.00 0.00 93 1009.2
20211022084806 64 215 0.0 1.0 0.00 0.00 0.00 93 1009.3
20211022083806 64 210 0.0 2.0 0.00 0.00 0.00 93 1009.1
20211022082806 64 211 0.0 3.0 0.00 0.00 0.00 93 1009.2
20211022081805 64 224 0.0 3.0 0.00 0.00 0.00 93 1009.3
20211022080801 64 218 0.0 2.0 0.00 0.00 0.00 93 1009.3
20211022075800 64 172 0.0 3.0 0.00 0.00 0.00 93 1009.4
20211022074800 64 200 1.0 3.0 0.00 0.00 0.00 93 1009.4
20211022073759 64 211 0.0 3.0 0.00 0.00 0.00 93 1009.5
20211022072759 64 219 0.0 1.0 0.00 0.00 0.00 92 1009.5
20211022071800 64 215 0.0 2.0 0.00 0.00 0.00 92 1009.6
20211022070804 64 209 0.0 2.0 0.00 0.00 0.00 92 1009.6
20211022065804 64 214 1.0 2.0 0.00 0.00 0.00 91 1009.7
20211022064804 64 193 1.0 3.0 0.00 0.00 0.00 91 1009.9
20211022063754 64 208 0.0 2.0 0.00 0.00 0.00 91 1010.1
20211022062754 64 218 0.0 3.0 0.00 0.00 0.00 91 1010.2
20211022061754 64 210 0.0 2.0 0.00 0.00 0.00 91 1010.1
20211022060753 64 215 0.0 2.0 0.00 0.00 0.00 91 1010.2
20211022055754 64 205 1.0 2.0 0.00 0.00 0.00 91 1010.3
20211022054754 64 214 0.0 2.0 0.00 0.00 0.00 91 1010.4
20211022053754 64 208 0.0 3.0 0.00 0.00 0.00 91 1010.5
20211022052754 64 217 0.0 2.0 0.00 0.00 0.00 91 1010.6
20211022051754 64 217 0.0 1.0 0.00 0.00 0.00 91 1010.7
20211022050751 64 203 0.0 1.0 0.00 0.00 0.00 91 1010.7
20211022045747 64 200 0.0 2.0 0.00 0.00 0.00 90 1010.9
20211022044748 64 214 0.0 2.0 0.00 0.00 0.00 90 1011.0
20211022043747 64 212 1.0 2.0 0.00 0.00 0.00 90 1011.1
20211022042748 64 229 0.0 2.0 0.00 0.00 0.00 90 1011.3
20211022041748 64 200 0.0 2.0 0.00 0.00 0.00 90 1011.4
20211022040747 64 208 0.0 3.0 0.00 0.00 0.00 91 1011.4
20211022035745 64 206 0.0 1.0 0.00 0.00 0.00 91 1011.6
20211022034745 64 208 0.0 2.0 0.00 0.00 0.00 91 1011.8
20211022033744 64 211 0.0 0.0 0.00 0.00 0.00 90 1011.9
20211022032744 64 206 0.0 0.0 0.00 0.00 0.00 90 1012.0
20211022031740 64 211 0.0 2.0 0.00 0.00 0.00 90 1012.1
20211022030740 64 210 1.0 3.0 0.00 0.00 0.00 89 1012.2
20211022025739 65 214 0.0 3.0 0.00 0.00 0.00 89 1012.3
20211022024740 65 212 0.0 2.0 0.00 0.00 0.00 89 1012.3
20211022023739 65 236 0.0 2.0 0.00 0.00 0.00 89 1012.4
20211022022739 65 201 0.0 3.0 0.00 0.00 0.00 89 1012.5
20211022021737 65 205 0.0 3.0 0.00 0.00 0.00 90 1012.5
20211022020732 64 217 0.0 2.0 0.00 0.00 0.00 90 1012.6
20211022015732 64 214 0.0 2.0 0.00 0.00 0.00 91 1012.6
20211022014731 64 203 0.0 2.0 0.00 0.00 0.00 91 1012.7
20211022013731 64 207 0.0 2.0 0.00 0.00 0.00 92 1012.8
20211022012731 64 209 0.0 2.0 0.00 0.00 0.00 92 1012.7
20211022011732 64 201 0.0 2.0 0.00 0.00 0.00 93 1012.8
20211022010732 63 212 0.0 1.0 0.00 0.00 0.00 93 1012.8
20211022005731 63 215 0.0 1.0 0.00 0.00 0.00 93 1013.0
20211022004731 63 210 0.0 1.0 0.00 0.00 0.00 93 1013.0
20211022003726 63 210 0.0 1.0 0.00 0.00 0.00 93 1013.0
20211022002726 63 215 0.0 2.0 0.00 0.00 0.00 93 1013.0
20211022001731 63 204 0.0 2.0 0.00 0.00 0.00 93 1013.1
20211022000727 63 215 0.0 0.0 0.00 0.00 0.00 93 1013.2
20211021235725 63 212 0.0 0.0 0.00 0.00 0.00 94 1013.4
20211021234724 63 212 0.0 0.0 0.00 0.00 0.00 94 1013.4
20211021233724 63 210 0.0 1.0 0.00 0.00 0.00 95 1013.4
20211021232724 63 215 0.0 1.0 0.00 0.00 0.00 95 1013.5
20211021231724 63 208 0.0 1.0 0.00 0.00 0.00 94 1013.5
20211021230719 63 208 0.0 1.0 0.00 0.00 0.00 94 1013.5
20211021225719 63 207 0.0 0.0 0.00 0.00 0.00 93 1013.6
20211021224720 63 208 0.0 0.0 0.00 0.00 0.00 92 1013.6
20211021223719 64 205 0.0 1.0 0.00 0.00 0.00 91 1013.6
20211021222718 64 208 0.0 1.0 0.00 0.00 0.00 90 1013.6
20211021221718 64 208 0.0 1.0 0.00 0.00 0.00 89 1013.7
20211021220717 64 218 0.0 1.0 0.00 0.00 0.00 88 1013.8
20211021215717 65 219 0.0 1.0 0.00 0.00 0.00 87 1013.8
20211021214717 65 212 0.0 1.0 0.00 0.00 0.00 84 1013.8
20211021213715 66 212 0.0 2.0 0.00 0.00 0.00 82 1013.8
20211021212716 67 203 1.0 2.0 0.00 0.00 0.00 81 1013.8
20211021211716 67 148 0.0 2.0 0.00 0.00 0.00 79 1013.8
20211021210715 68 211 0.0 3.0 0.00 0.00 0.00 77 1013.9
20211021205716 69 214 0.0 2.0 0.00 0.00 0.00 76 1013.8
20211021204715 69 214 1.0 2.0 0.00 0.00 0.00 74 1013.8
20211021203717 69 214 1.0 2.0 0.00 0.00 0.00 73 1013.7
20211021202715 70 205 1.0 2.0 0.00 0.00 0.00 71 1013.6
20211021201715 71 246 1.0 2.0 0.00 0.00 0.00 69 1013.7
20211021200714 71 219 1.0 3.0 0.00 0.00 0.00 67 1013.7
20211021195714 71 212 0.0 2.0 0.00 0.00 0.00 66 1013.7
20211021194713 71 246 0.0 2.0 0.00 0.00 0.00 67 1013.8
20211021193713 71 190 1.0 3.0 0.00 0.00 0.00 63 1013.8
20211021192714 71 209 1.0 3.0 0.00 0.00 0.00 66 1013.9
20211021191714 71 208 0.0 3.0 0.00 0.00 0.00 68 1013.9
20211021190714 72 220 1.0 4.0 0.00 0.00 0.00 66 1013.9
20211021185714 72 215 1.0 4.0 0.00 0.00 0.00 64 1014.0